Dewpoint
55 56 56 54 54 53 54 54 56 56 56 56 55 53 55 55 54 54 55 55 56 56 56 56 57 57 52 45 44 48 58 59 55 51 45 44 38 38 33 35 32 28 32 30 30 30 29
54 54 55 55 53 54 53 54 55 56 56 56 55 54 53 55 55 55 55 55 56 56 56 56 55 54 46 38 45 47 52 53 53 48 45 44 39 38 33 31 30 31 29 27 28 29 29
53 54 54 54 55 54 54 53 55 55 56 56 55 55 54 53 55 55 54 56 54 53 53 55 52 46 42 41 38 43 44 49 49 48 44 45 42 31 31 27 29 27 26 25 26 26 28
55 55 54 54 54 54 54 54 54 55 55 56 55 55 54 53 53 55 53 53 53 53 55 54 53 44 42 45 42 37 39 36 39 46 46 43 43 39 28 27 26 25 25 22 25 28 28
54 55 54 54 54 54 53 54 53 54 54 55 55 55 54 54 52 52 54 54 53 53 52 53 47 43 37 43 37 38 36 35 36 40 43 41 35 30 27 25 24 22 23 23 22 28 27
54 54 54 54 54 53 54 54 54 53 54 54 55 55 54 53 53 51 52 53 53 53 48 49 48 39 35 34 36 37 35 37 35 37 35 32 30 25 24 26 21 19 19 23 17 25 27
54 54 54 54 54 53 53 53 54 53 52 54 55 55 54 53 53 51 49 43 40 38 41 38 36 35 35 38 39 37 36 35 32 29 28 29 27 23 22 23 22 20 13 20 24 26 24
54 54 54 54 54 54 54 54 54 53 52 53 54 55 53 53 53 52 45 42 41 41 37 39 39 38 37 39 34 36 35 31 28 27 28 26 23 27 27 24 20 18 14 20 21 23 23
53 53 54 54 54 55 53 54 53 53 53 54 54 54 53 53 53 48 41 42 44 42 36 36 38 36 35 37 34 34 33 32 26 24 25 25 27 30 25 22 21 22 17 16 20 21 20
54 54 54 54 55 55 54 53 53 53 53 54 54 53 52 51 44 43 41 45 45 40 29 25 32 32 35 35 30 34 35 31 29 26 28 28 31 24 24 25 21 16 26 22 21 16 13
54 54 54 54 55 55 55 53 53 53 52 54 53 52 51 49 41 38 42 45 43 33 12 23 29 35 34 30 29 30 35 32 27 30 25 27 29 25 23 25 27 20 27 25 20 18 16
54 54 53 54 54 55 54 54 53 53 54 54 52 51 51 45 42 42 45 43 38 24 11 23 30 28 26 27 29 30 30 33 33 28 28 29 32 31 28 29 28 30 26 25 22 19 14
53 54 54 54 54 54 54 55 53 53 54 53 52 50 47 43 39 45 44 37 25 17 22 20 27 28 25 24 24 25 25 24 22 20 21 22 26 31 32 25 28 22 20 16 13 14 13
53 54 54 54 54 54 54 55 54 54 54 52 51 49 45 43 46 44 37 24 16 20 23 29 28 24 21 22 22 23 20 20 23 23 21 19 15 28 32 27 21 23 16 17 4 10 11
53 54 54 54 53 53 54 54 55 55 54 51 48 43 40 39 45 40 29 23 19 23 29 29 24 16 18 21 21 22 24 20 23 26 15 17 22 32 32 31 24 18 18 18 16 13 10
54 54 54 53 53 53 54 54 54 54 54 49 42 39 40 41 42 35 29 27 27 31 30 30 18 19 17 17 18 23 23 27 23 21 24 23 21 28 31 31 27 20 18 14 18 1 1
54 54 53 53 53 53 53 54 54 54 54 49 41 32 40 42 36 31 25 25 28 29 29 26 23 19 16 14 17 22 23 26 28 24 25 22 19 23 28 25 22 21 18 17 13 8 -0
54 53 53 52 52 52 53 54 54 54 53 47 38 30 42 38 26 28 26 28 33 27 26 26 24 22 17 17 19 20 21 25 30 29 18 19 19 19 19 25 27 24 18 16 14 5 10
53 53 52 52 52 52 53 53 53 54 53 42 36 36 41 30 17 22 28 25 25 23 22 23 19 22 18 16 15 25 26 30 30 25 18 15 10 10 7 15 21 23 24 15 15 16 11
53 52 52 51 51 52 52 53 53 54 52 39 30 27 32 34 29 23 21 20 17 25 22 23 18 17 15 15 17 22 24 29 30 26 31 22 12 5 8 6 15 17 19 20 16 16 9
52 52 51 51 50 51 52 53 53 53 52 39 34 31 32 24 29 27 25 21 21 19 21 21 14 15 11 6 8 19 24 24 26 30 26 13 3 12 12 13 18 14 11 21 17 16 11
52 51 50 49 50 50 52 53 53 53 49 39 27 28 34 31 32 29 30 27 25 25 24 22 19 18 17 10 5 7 15 18 18 24 21 20 5 19 10 25 15 12 13 15 21 21 16
52 50 49 49 49 49 50 51 52 53 45 37 38 39 32 32 29 26 28 28 27 27 27 28 26 26 24 22 24 27 22 19 21 20 19 17 19 20 18 25 25 20 24 18 14 18 18
51 50 49 48 48 49 49 50 52 53 46 41 40 39 31 21 30 27 30 30 29 28 29 29 29 29 30 33 32 30 28 29 25 24 23 19 21 23 20 21 14 19 28 26 20 19 18
52 51 49 47 47 48 48 50 51 52 50 43 41 39 34 24 29 30 31 32 32 32 32 32 31 31 33 32 29 27 27 27 27 27 24 23 23 22 20 20 20 23 25 26 25 25 26
53 51 49 47 46 47 49 49 49 51 52 44 42 41 38 29 22 33 31 32 31 30 31 33 34 34 34 32 29 22 19 23 24 24 27 26 24 22 23 20 18 20 24 22 26 21 27
52 51 49 47 46 46 48 48 48 49 51 45 43 42 40 34 33 34 33 32 33 31 30 31 32 31 32 30 28 26 23 25 23 24 23 23 23 21 22 20 23 26 28 27 21 21 28
52 52 50 47 46 46 47 47 47 48 49 45 43 43 41 36 36 38 37 35 35 33 30 32 32 32 31 29 27 26 25 26 23 24 24 24 22 21 21 19 18 28 26 23 26 29 30
52 52 50 48 47 46 47 46 46 46 47 47 41 45 43 39 33 40 40 39 38 36 34 34 32 31 32 29 29 28 28 26 25 23 24 24 24 24 23 22 28 29 28 31 31 30 31
Lifted_Index
8 8 8 8 8 7 7 6 5 4 4 3 3 3 3 3 3 3 3 2 2 1 1 0 -0 0 1 2 3 1 -1 -2 -1 1 4 5 5 6 6 6 6 6 6 5 4 3 2
8 8 8 8 8 7 7 6 5 5 4 4 3 3 3 3 2 2 2 2 2 2 1 1 0 1 2 2 3 2 0 -1 -1 1 3 5 5 6 6 6 6 6 6 5 4 3 3
8 8 8 8 8 7 7 7 6 5 4 4 3 3 3 3 3 2 2 2 2 2 2 1 1 1 2 2 3 3 2 0 0 1 3 4 4 5 6 6 6 6 5 5 5 4 3
8 8 8 8 8 8 7 7 7 6 5 4 4 4 3 3 3 2 2 2 2 2 2 1 1 1 1 2 2 3 3 2 1 2 3 3 4 5 5 6 6 6 5 4 5 5 5
8 8 8 8 8 8 8 7 7 6 6 5 4 4 4 4 3 3 3 2 2 2 2 2 1 1 2 2 2 3 3 3 2 3 3 3 3 4 5 6 6 5 4 4 4 5 5
8 8 8 8 9 8 8 7 7 7 6 5 4 4 4 4 4 4 3 3 2 2 2 2 2 2 2 2 3 3 3 3 3 3 3 3 3 4 5 5 5 5 4 4 4 4 5
8 8 8 8 8 9 8 8 7 7 7 6 5 4 4 4 4 4 4 3 2 2 2 2 2 2 2 2 3 3 3 3 2 2 2 3 3 4 5 5 5 5 4 4 4 4 4
8 8 8 8 8 8 8 8 8 7 7 6 5 4 4 4 4 4 4 3 3 3 2 2 2 2 2 2 2 3 3 2 2 2 2 3 3 4 4 5 5 5 4 4 4 4 4
8 8 8 8 8 8 8 8 8 8 7 7 6 5 5 5 4 4 4 4 3 3 2 2 2 2 2 2 2 2 2 2 2 2 2 3 3 4 4 5 5 5 4 4 4 4 4
8 8 8 8 8 8 8 8 8 8 8 7 7 6 6 6 5 5 4 4 4 4 2 2 2 2 2 2 2 2 2 2 2 2 2 3 3 4 4 5 5 5 5 4 4 3 3
8 8 8 8 8 8 8 8 8 8 8 8 7 7 7 7 6 5 5 5 5 3 2 2 2 2 2 2 2 2 2 2 2 2 3 3 3 4 5 5 5 5 5 4 4 3 3
8 8 8 8 8 8 8 8 8 8 8 8 8 8 8 8 7 6 6 6 4 3 2 2 2 2 2 2 2 2 2 2 2 2 3 3 4 4 5 5 5 5 4 4 3 2 2
8 8 8 8 8 8 8 8 8 8 8 9 9 9 9 8 7 7 6 5 3 3 3 3 2 2 2 2 2 2 2 2 3 3 3 3 4 4 5 5 5 5 4 2 1 1 1
8 8 8 8 8 8 8 8 8 8 8 9 10 10 9 8 8 7 6 4 3 3 3 3 3 3 3 3 2 3 3 3 3 3 3 3 3 4 5 5 5 4 3 2 1 1 1
8 8 8 8 9 8 8 8 8 8 8 8 9 9 9 8 8 7 5 3 3 3 4 4 3 3 3 3 3 3 3 3 4 4 4 3 3 4 5 5 5 4 4 3 2 1 1
8 8 8 9 9 9 8 8 8 8 8 7 7 8 8 8 8 7 5 4 4 5 5 4 4 3 3 4 4 4 4 4 4 4 4 3 3 4 4 5 5 4 4 3 3 1 1
8 8 9 9 9 9 9 8 8 8 8 7 7 7 7 8 8 7 5 5 5 6 6 5 4 4 4 4 4 4 4 4 5 5 4 4 3 3 4 4 4 4 4 3 3 2 1
8 8 9 9 9 9 9 9 8 8 8 7 7 7 7 8 7 6 6 6 7 7 6 6 5 5 5 4 4 4 4 5 5 5 5 4 3 2 3 4 4 4 4 3 3 3 2
8 9 9 9 10 9 9 9 9 8 8 7 7 7 7 7 7 6 6 7 7 7 7 7 6 6 6 5 4 4 5 6 6 6 6 5 4 2 2 3 4 4 4 4 4 3 2
8 9 9 10 10 10 9 9 9 9 8 8 7 6 7 7 6 6 6 6 6 7 7 7 7 7 6 6 5 5 5 6 7 8 7 7 5 3 3 4 4 4 4 5 5 4 3
9 9 9 10 10 10 9 9 9 9 9 8 6 6 6 6 6 7 7 6 6 6 7 7 7 7 6 6 6 6 6 7 8 8 8 7 5 4 5 5 5 5 5 5 5 4 4
9 9 9 9 10 10 9 9 8 9 9 8 7 6 6 6 6 6 7 7 7 7 7 6 6 6 6 6 6 6 7 7 7 8 8 7 6 5 5 5 5 5 5 5 5 5 5
9 9 9 9 10 10 9 9 9 9 9 8 8 7 6 6 6 6 6 7 7 8 7 7 7 7 7 7 7 7 7 7 7 7 8 7 6 5 5 5 5 4 5 6 6 6 6
8 9 9 9 9 10 10 10 9 9 9 9 8 8 7 6 6 6 6 7 7 8 8 8 8 8 8 8 8 7 7 7 7 7 7 7 7 5 4 4 4 5 6 6 6 6 6
8 8 9 9 9 10 10 10 10 9 9 9 9 8 8 7 7 7 7 7 7 8 8 8 9 9 9 9 8 7 6 6 7 7 7 7 7 6 4 4 4 6 7 7 6 6 7
8 8 8 9 9 10 11 11 10 9 9 9 9 9 9 8 8 8 8 8 8 8 8 8 9 9 9 9 8 6 6 6 6 6 7 7 7 6 5 4 4 6 8 8 7 7 7
8 8 9 9 9 10 11 11 11 10 10 10 10 10 10 9 9 9 9 8 8 8 8 8 9 9 9 8 7 6 6 7 7 6 6 7 6 6 5 5 5 7 8 8 7 7 8
8 9 9 9 9 10 11 12 12 12 11 11 11 11 11 10 10 10 10 9 9 9 9 9 9 9 9 8 8 7 7 8 7 7 7 7 6 6 6 6 6 8 9 8 8 8 8
8 9 9 10 10 10 11 13 13 13 12 12 11 11 11 11 11 11 11 10 10 10 10 10 9 9 9 9 8 8 8 8 8 7 7 7 7 7 7 7 7 8 9 8 8 8 8